Left ArrowRight Arrow

Hourly Observations for September 7, 2021

Temp ( °F °C ) Dew Point ( °F °C ) Humidity (%) Winds ( mph kmh ) Pressure ( in mb ) Visibility ( mi km ) Precip ( " mm )
12:53 am 00:53 Clear with Smoke 69 20.6 37 2.8 31 31 N 3 6 29.90 1013 10 16 0.00 0.00
1:53 am 01:53 Clear with Smoke 74 23.3 35 1.7 24 24 NNW 6 9 29.91 1013 10 16 0.00 0.00
2:53 am 02:53 Clear with Smoke 70 21.1 37 2.8 30 30 Calm 29.91 1013 10 16 0.00 0.00
3:53 am 03:53 Clear with Smoke 69 20.6 38 3.3 32 32 NNW 3 6 29.91 1013 10 16 0.00 0.00
4:53 am 04:53 Clear with Smoke 66 18.9 39 3.9 37 37 NW 5 7 29.91 1013 10 16 0.00 0.00
5:53 am 05:53 Clear with Smoke 64 17.8 38 3.3 38 38 Calm 29.92 1013 10 16 0.00 0.00
6:53 am 06:53 Sunny with Smoke 63 17.2 39 3.9 41 41 Calm 29.92 1013 10 16 0.00 0.00
8:53 am 08:53 Sunny with Smoke 79 26.1 38 3.3 23 23 N 3 6 29.92 1013 10 16 0.00 0.00
9:53 am 09:53 Sunny with Smoke 87 30.6 34 1.1 15 15 NW 5 7 29.91 1013 10 16 0.00 0.00
10:53 am 10:53 Sunny with Smoke 93 33.9 35 1.7 13 13 Calm 29.90 1013 10 16 0.00 0.00
11:53 am 11:53 Sunny with Smoke 98 36.7 34 1.1 11 11 Calm 29.88 1012 10 16 0.00 0.00
12:53 pm 12:53 Sunny with Smoke 101 38.3 34 1.1 10 10 WSW 5 7 29.85 1011 10 16 0.00 0.00
1:53 pm 13:53 Sunny with Smoke 103 39.4 31 -0.6 8 8 W 6 9 29.83 1010 10 16 0.00 0.00
2:53 pm 14:53 Sunny with Smoke 104 40 29 -1.7 7 7 SSW 5 7 29.81 1010 10 16 0.00 0.00
3:53 pm 15:53 Sunny with Smoke 106 41.1 31 -0.6 7 7 VRB 3 6 29.78 1009 10 16 0.00 0.00
4:53 pm 16:53 Sunny with Smoke 106 41.1 28 -2.2 6 6 SSE 8 13 29.77 1008 10 16 0.00 0.00
5:53 pm 17:53 Sunny with Smoke 105 40.6 31 -0.6 7 7 SSE 15 24 29.76 1008 10 16 0.00 0.00
6:53 pm 18:53 Sunny with Smoke 100 37.8 39 3.9 12 12 S 9 15 29.77 1008 10 16 0.00 0.00
7:30 pm 19:30 Mostly Cloudy with Haze 98 36.7 34 1.1 11 11 WNW 9 15 29.77 1008 3 4 0.00 0.00
7:44 pm 19:44 Cloudy with Haze 97 36.1 33 0.6 10 10 NW 9 15 29.78 1008 3 5 0.00 0.00
7:53 pm 19:53 Cloudy with Haze 96 35.6 33 0.6 11 11 WNW 7 11 29.80 1009 3 5 0.00 0.00
8:31 pm 20:31 Cloudy with Haze 94 34.4 30 -1.1 10 10 W 5 7 29.81 1010 5 8 0.00 0.00
8:43 pm 20:43 Cloudy with Haze 93 33.9 30 -1.1 10 10 NW 3 6 29.81 1010 5 8 0.00 0.00
8:53 pm 20:53 Cloudy with Haze 93 33.9 30 -1.1 10 10 VRB 5 7 29.83 1010 6 10 0.00 0.00
9:53 pm 21:53 Cloudy with Haze 91 32.8 38 3.3 15 15 NW 5 7 29.85 1011 4 6 0.00 0.00
10:53 pm 22:53 Cloudy with Haze 87 30.6 41 5 20 20 Calm 29.85 1011 5 8 0.00 0.00
11:53 pm 23:53 Cloudy with Haze 81 27.2 41 5 24 24 NE 5 7 29.85 1011 6 10 0.00 0.00

Powered by Vaisala Xweather